Tracking 32460 objects as of 11-Dec-2025
HD Live streaming from Space Station
objects crossing your sky now

STARLINK-6262

Track STARLINK-6262 now!
10-day predictions
STARLINK-6262 is classified as:


NORAD ID: 57091
Int'l Code: 2023-088AV
Perigee: 565.5 km
Apogee: 566.9 km
Inclination: 43.0 °
Period: 95.8 minutes
Semi major axis: 6937 km
RCS: Unknown
Launch date: June 22, 2023
Source: United States (US)
Launch site: AIR FORCE WESTERN TEST RANGE (AFWTR)
Your satellite tracking list
Your tracking list is empty




NASA's NSSDC Master Catalog

Two Line Element Set (TLE):
1 57091U 23088AV  25345.02334283  .00004057  00000-0  31516-3 0  9992
2 57091  43.0021 216.1113 0001030 273.8842  86.1882 15.02543755137187
Source of the keplerian elements: AFSPC